User: anonymous   Login
Location: Ab? ar R?sh Ba?r?
(24.1861°N, 32.8847°E)
Time: 05:55:36
(UTC+00:00)
Language:

COSMOS 2428 - Orbit

View from above orbital plane
View from above orbital plane
View from above satellite
View from above satellite

Ground track
Ground track

The orbit data is extracted from the following two-line orbital elements,

1 31792U 07029A   22024.73103669  .00000317  00000-0  19746-3 0  9996
2 31792  70.9297 121.3026 0010791 267.4636  92.5250 14.12447682751639
Epoch (UTC): 24 January 2022 17:32:41
Eccentricity: 0.0010791
inclination: 70.9297°
perigee height: 843 km
apogee height: 859 km
right ascension of ascending node: 121.3026°
argument of perigee: 267.4636°
revolutions per day: 14.12447682
mean anomaly at epoch: 92.5250°
orbit number at epoch: 75163

The dashed part of the orbit path shows where the satellite is in the earth's shadow,  

DLR